contact:dominique.lefevre@mio.osupytheas.fr, maurice.libes@osupytheas.fr, didier.mallarino@osupytheas.fr
Project:EMSO http://www.emso-fr.org/EMSO-France
Depth: 2436.0 m
Title:EMSO Ligure Ouest : Data MII capteur AQUADOPP
Date,Latitude,Longitude,X_East,Y_North,Z_Up,Amplitude_X,Amplitude_Y,Amplitude_Z,Batterie,SoundSpeed,Heading,Pitch,Roll,Pressure,TIS,Speed,Direction
, degrees North, degrees East, m.s-1, m.s-1,m.s-1, 1, 1, 1, Volt, m.s-1, degree, degree, degree, dbar, degree_C, m.s-1, degree
2022-01-15T00:04:02,42.805,6.029,0.043,-0.035,-0.015,103.0,102.0,102.0,13.4,1505.2,325.1,-0.7,1.8,2470.403,13.28,0.055,129.1
2022-01-15T00:07:02,42.805,6.029,0.047,-0.02,-0.001,104.0,103.0,101.0,13.4,1505.2,325.9,-0.8,1.8,2470.375,13.28,0.051,113.0
2022-01-15T00:10:03,42.805,6.029,0.05,-0.032,0.004,103.0,102.0,102.0,13.4,1505.2,328.8,-0.8,1.8,2470.37,13.28,0.059,122.6
2022-01-15T00:13:03,42.805,6.029,0.056,-0.036,-0.028,104.0,101.0,102.0,13.3,1505.2,325.7,-0.8,1.8,2470.401,13.28,0.066,122.7
2022-01-15T00:16:03,42.805,6.029,0.026,-0.042,-0.014,103.0,102.0,102.0,13.4,1505.2,331.3,-0.8,1.8,2470.447,13.28,0.049,148.2
2022-01-15T00:19:03,42.805,6.029,0.061,-0.016,-0.006,103.0,102.0,102.0,13.4,1505.2,327.5,-0.7,1.8,2470.419,13.28,0.063,104.7
2022-01-15T00:22:03,42.805,6.029,0.045,-0.022,0.003,103.0,104.0,101.0,13.3,1505.2,325.9,-0.8,1.8,2470.47,13.28,0.05,116.1
2022-01-15T00:25:03,42.805,6.029,0.028,-0.005,0.003,103.0,102.0,101.0,13.4,1505.2,327.9,-0.8,1.8,2470.469,13.28,0.028,100.1
2022-01-15T00:28:03,42.805,6.029,0.056,-0.035,-0.026,103.0,102.0,103.0,13.4,1505.2,326.6,-0.8,1.8,2470.453,13.28,0.066,122.0
2022-01-15T00:31:03,42.805,6.029,0.063,-0.022,-0.022,102.0,103.0,103.0,13.3,1505.2,328.1,-0.8,1.8,2470.474,13.28,0.066,109.2
2022-01-15T00:34:03,42.805,6.029,0.052,-0.006,0.003,104.0,102.0,102.0,13.4,1505.2,323.5,-0.8,1.8,2470.513,13.28,0.052,96.6
2022-01-15T00:37:03,42.805,6.029,0.058,-0.023,-0.011,104.0,102.0,102.0,13.4,1505.2,331.2,-0.8,1.8,2470.523,13.28,0.062,111.6
2022-01-15T00:40:03,42.805,6.029,0.057,-0.038,-0.004,103.0,103.0,101.0,13.4,1505.2,329.9,-0.8,1.8,2470.494,13.28,0.068,123.7
2022-01-15T00:43:03,42.805,6.029,0.045,-0.039,-0.034,104.0,102.0,102.0,13.4,1505.2,328.9,-0.7,1.8,2470.545,13.28,0.059,130.9
2022-01-15T00:46:03,42.805,6.029,0.043,-0.023,-0.014,103.0,103.0,102.0,13.4,1505.2,327.3,-0.8,1.8,2470.544,13.28,0.048,118.1
2022-01-15T00:49:03,42.805,6.029,0.057,-0.028,0.013,104.0,103.0,101.0,13.3,1505.2,330.5,-0.7,1.8,2470.536,13.28,0.063,116.2
2022-01-15T00:52:03,42.805,6.029,0.047,-0.023,-0.023,103.0,103.0,102.0,13.3,1505.2,329.2,-0.7,1.8,2470.557,13.28,0.052,116.1
2022-01-15T00:55:03,42.805,6.029,0.062,-0.026,0.011,103.0,103.0,101.0,13.4,1505.2,331.5,-0.8,1.8,2470.575,13.28,0.067,112.7
2022-01-15T00:58:03,42.805,6.029,0.041,-0.028,0.006,102.0,104.0,102.0,13.4,1505.2,329.0,-0.8,1.8,2470.568,13.28,0.049,124.3
2022-01-15T01:04:02,42.805,6.029,0.038,-0.029,-0.011,104.0,104.0,103.0,13.3,1505.2,328.7,-0.8,1.8,2470.603,13.28,0.047,127.3
2022-01-15T01:07:03,42.805,6.029,0.059,-0.007,-0.054,104.0,105.0,103.0,13.3,1505.2,331.7,-0.8,1.8,2470.626,13.28,0.059,96.8
2022-01-15T01:10:02,42.805,6.029,0.039,-0.025,0.002,104.0,103.0,102.0,13.4,1505.2,328.2,-0.7,1.8,2470.581,13.28,0.046,122.7
2022-01-15T01:13:03,42.805,6.029,0.044,-0.009,-0.018,102.0,103.0,104.0,13.4,1505.2,324.0,-0.8,1.8,2470.614,13.28,0.044,101.6
2022-01-15T01:16:03,42.805,6.029,0.026,-0.014,-0.011,104.0,103.0,101.0,13.4,1505.2,323.9,-0.7,1.8,2470.591,13.28,0.029,118.3
2022-01-15T01:19:03,42.805,6.029,0.027,-0.018,0.0,103.0,103.0,102.0,13.4,1505.2,324.9,-0.7,1.8,2470.653,13.28,0.032,123.7
2022-01-15T01:22:03,42.805,6.029,0.023,-0.026,-0.005,103.0,103.0,101.0,13.3,1505.2,327.5,-0.7,1.8,2470.583,13.28,0.034,138.5
2022-01-15T01:25:03,42.805,6.029,0.051,-0.021,0.005,102.0,102.0,101.0,13.4,1505.2,330.9,-0.7,1.8,2470.63,13.28,0.055,112.4
2022-01-15T01:28:03,42.805,6.029,0.052,-0.022,-0.022,103.0,104.0,101.0,13.4,1505.2,328.6,-0.8,1.8,2470.606,13.28,0.056,112.9
2022-01-15T01:31:03,42.805,6.029,0.055,-0.028,0.004,103.0,102.0,102.0,13.3,1505.2,326.0,-0.7,1.8,2470.601,13.28,0.061,117.0
2022-01-15T01:34:03,42.805,6.029,0.04,-0.029,-0.022,103.0,104.0,101.0,13.3,1505.2,328.6,-0.8,1.8,2470.643,13.28,0.049,125.9
2022-01-15T01:37:02,42.805,6.029,0.033,-0.007,0.01,104.0,101.0,101.0,13.3,1505.2,325.6,-0.8,1.8,2470.596,13.28,0.033,102.0
2022-01-15T01:40:03,42.805,6.029,0.047,-0.019,0.021,103.0,104.0,101.0,13.3,1505.2,327.0,-0.7,1.8,2470.586,13.28,0.05,112.0
2022-01-15T01:43:03,42.805,6.029,0.069,-0.01,0.003,104.0,103.0,100.0,13.4,1505.2,325.9,-0.8,1.8,2470.614,13.28,0.069,98.2
2022-01-15T01:46:03,42.805,6.029,0.047,-0.023,-0.014,102.0,103.0,101.0,13.4,1505.2,323.3,-0.8,1.9,2470.609,13.28,0.052,116.1
2022-01-15T01:49:03,42.805,6.029,0.068,-0.015,0.032,102.0,102.0,102.0,13.4,1505.2,324.1,-0.8,1.9,2470.552,13.28,0.069,102.4
2022-01-15T01:52:03,42.805,6.029,0.029,-0.028,0.002,102.0,104.0,101.0,13.4,1505.2,329.5,-0.7,1.8,2470.624,13.28,0.04,134.0
2022-01-15T01:55:03,42.805,6.029,0.048,-0.022,-0.019,103.0,103.0,101.0,13.4,1505.2,326.6,-0.7,1.8,2470.637,13.28,0.052,114.6
2022-01-15T01:58:03,42.805,6.029,0.077,-0.029,-0.007,103.0,103.0,102.0,13.4,1505.2,324.1,-0.8,1.8,2470.607,13.28,0.082,110.6
2022-01-15T02:04:02,42.805,6.029,0.06,-0.023,0.044,103.0,103.0,102.0,13.4,1505.2,329.1,-0.8,1.8,2470.655,13.28,0.064,111.0
2022-01-15T02:07:03,42.805,6.029,0.045,-0.034,0.01,103.0,103.0,101.0,13.3,1505.2,329.0,-0.7,1.8,2470.624,13.28,0.056,127.1
2022-01-15T02:10:03,42.805,6.029,0.053,-0.004,0.01,103.0,103.0,102.0,13.3,1505.2,325.4,-0.7,1.8,2470.588,13.28,0.053,94.3
2022-01-15T02:13:03,42.805,6.029,0.036,-0.026,-0.028,103.0,104.0,102.0,13.3,1505.2,327.7,-0.7,1.8,2470.62,13.28,0.044,125.8
2022-01-15T02:16:03,42.805,6.029,0.073,-0.022,0.03,104.0,103.0,101.0,13.4,1505.2,329.3,-0.8,1.8,2470.619,13.28,0.076,106.8
2022-01-15T02:19:03,42.805,6.029,0.053,-0.032,0.003,102.0,102.0,101.0,13.3,1505.2,329.0,-0.7,1.8,2470.613,13.28,0.061,121.1
2022-01-15T02:22:03,42.805,6.029,0.053,-0.027,-0.007,103.0,103.0,101.0,13.3,1505.2,329.7,-0.7,1.8,2470.63,13.28,0.059,117.0
2022-01-15T02:25:03,42.805,6.029,0.08,-0.044,-0.035,104.0,101.0,102.0,13.4,1505.2,327.1,-0.8,1.8,2470.629,13.28,0.091,118.8
2022-01-15T02:28:03,42.805,6.029,0.047,-0.032,0.019,103.0,103.0,101.0,13.4,1505.2,326.9,-0.7,1.8,2470.625,13.28,0.056,124.2
2022-01-15T02:31:03,42.805,6.029,0.055,-0.019,-0.004,102.0,103.0,102.0,13.4,1505.2,326.1,-0.8,1.8,2470.618,13.28,0.058,109.1
2022-01-15T02:34:03,42.805,6.029,0.04,-0.025,0.011,104.0,104.0,101.0,13.4,1505.2,331.3,-0.7,1.8,2470.604,13.28,0.047,122.0
2022-01-15T02:37:03,42.805,6.029,0.061,-0.003,0.014,104.0,103.0,102.0,13.4,1505.2,323.7,-0.7,1.8,2470.628,13.28,0.061,92.8
2022-01-15T02:40:03,42.805,6.029,0.047,-0.05,-0.018,103.0,103.0,102.0,13.4,1505.2,327.6,-0.7,1.8,2470.665,13.28,0.068,136.8
2022-01-15T02:43:03,42.805,6.029,0.059,-0.011,0.0,103.0,102.0,102.0,13.3,1505.2,330.6,-0.7,1.8,2470.61,13.28,0.06,100.6
2022-01-15T02:46:03,42.805,6.029,0.049,-0.033,-0.015,103.0,104.0,101.0,13.4,1505.2,324.4,-0.8,1.8,2470.65,13.28,0.059,124.0
2022-01-15T02:49:03,42.805,6.029,0.058,-0.044,-0.016,104.0,102.0,102.0,13.3,1505.2,329.5,-0.8,1.8,2470.64,13.28,0.072,127.2
2022-01-15T02:52:03,42.805,6.029,0.058,-0.039,-0.008,103.0,104.0,102.0,13.3,1505.2,331.9,-0.8,1.8,2470.647,13.28,0.069,123.9
2022-01-15T02:55:03,42.805,6.029,0.059,-0.04,-0.004,105.0,101.0,101.0,13.3,1505.2,327.6,-0.7,1.9,2470.63,13.28,0.071,124.1
2022-01-15T02:58:03,42.805,6.029,0.052,-0.027,0.011,103.0,102.0,102.0,13.3,1505.2,327.0,-0.7,1.8,2470.633,13.28,0.058,117.4
2022-01-15T03:04:02,42.805,6.029,0.039,-0.049,0.014,103.0,102.0,101.0,13.4,1505.2,326.5,-0.7,1.8,2470.692,13.28,0.062,141.5
2022-01-15T03:07:03,42.805,6.029,0.07,-0.038,-0.01,104.0,103.0,102.0,13.4,1505.2,329.9,-0.8,1.8,2470.622,13.28,0.079,118.5
2022-01-15T03:10:03,42.805,6.029,0.042,-0.007,0.005,103.0,102.0,101.0,13.3,1505.2,325.4,-0.8,1.8,2470.677,13.28,0.042,99.5
2022-01-15T03:13:03,42.805,6.029,0.055,-0.05,-0.022,105.0,101.0,102.0,13.4,1505.2,331.3,-0.7,1.8,2470.616,13.28,0.074,132.3
2022-01-15T03:16:03,42.805,6.029,0.052,-0.019,0.006,103.0,102.0,101.0,13.4,1505.2,324.5,-0.7,1.8,2470.617,13.28,0.055,110.1
2022-01-15T03:19:03,42.805,6.029,0.077,-0.036,-0.018,103.0,103.0,102.0,13.4,1505.2,326.5,-0.7,1.8,2470.591,13.28,0.084,115.1
2022-01-15T03:22:03,42.805,6.029,0.044,-0.021,-0.026,105.0,102.0,102.0,13.4,1505.2,326.4,-0.8,1.8,2470.625,13.28,0.048,115.5
2022-01-15T03:25:03,42.805,6.029,0.049,-0.022,-0.004,103.0,103.0,101.0,13.4,1505.2,325.5,-0.7,1.9,2470.647,13.28,0.053,114.2
2022-01-15T03:28:03,42.805,6.029,0.06,-0.035,-0.003,103.0,103.0,102.0,13.4,1505.2,326.2,-0.8,1.8,2470.637,13.28,0.069,120.3
2022-01-15T03:31:03,42.805,6.029,0.074,-0.03,-0.011,104.0,103.0,102.0,13.4,1505.2,327.9,-0.7,1.8,2470.647,13.28,0.079,112.1
2022-01-15T03:34:03,42.805,6.029,0.068,-0.031,0.0,103.0,103.0,103.0,13.4,1505.2,326.5,-0.7,1.8,2470.673,13.28,0.074,114.5
2022-01-15T03:37:03,42.805,6.029,0.068,-0.018,0.038,103.0,104.0,101.0,13.3,1505.2,324.5,-0.7,1.8,2470.636,13.28,0.07,104.8
2022-01-15T03:40:03,42.805,6.029,0.063,-0.04,-0.011,103.0,104.0,101.0,13.4,1505.2,327.5,-0.7,1.8,2470.65,13.28,0.074,122.4
2022-01-15T03:43:03,42.805,6.029,0.073,-0.044,-0.019,104.0,103.0,102.0,13.3,1505.2,328.8,-0.7,1.8,2470.636,13.28,0.085,121.1
2022-01-15T03:46:03,42.805,6.029,0.06,-0.018,0.003,103.0,103.0,102.0,13.3,1505.2,324.9,-0.8,1.8,2470.637,13.28,0.062,106.7
2022-01-15T03:49:03,42.805,6.029,0.039,-0.013,-0.005,102.0,104.0,102.0,13.3,1505.2,329.3,-0.8,1.8,2470.663,13.28,0.041,108.4
2022-01-15T03:52:03,42.805,6.029,0.061,-0.025,0.02,102.0,103.0,102.0,13.4,1505.2,326.0,-0.7,1.8,2470.674,13.28,0.065,112.3
2022-01-15T03:55:03,42.805,6.029,0.054,-0.037,-0.027,103.0,104.0,102.0,13.3,1505.2,326.7,-0.7,1.8,2470.661,13.28,0.065,124.4
2022-01-15T03:58:03,42.805,6.029,0.062,-0.011,0.038,102.0,103.0,103.0,13.4,1505.2,325.3,-0.7,1.8,2470.682,13.28,0.062,100.1
2022-01-15T04:04:03,42.805,6.029,0.039,-0.044,0.009,102.0,102.0,101.0,13.4,1505.2,328.8,-0.7,1.8,2470.732,13.28,0.058,138.4
2022-01-15T04:07:03,42.805,6.029,0.068,-0.029,0.003,104.0,102.0,101.0,13.3,1505.2,325.8,-0.7,1.8,2470.642,13.28,0.073,113.1
2022-01-15T04:10:03,42.805,6.029,0.033,-0.036,0.028,104.0,103.0,101.0,13.3,1505.2,324.7,-0.7,1.8,2470.68,13.28,0.048,137.5
2022-01-15T04:13:03,42.805,6.029,0.064,-0.02,0.019,103.0,102.0,102.0,13.4,1505.2,328.0,-0.7,1.8,2470.655,13.28,0.067,107.4
2022-01-15T04:16:03,42.805,6.029,0.03,-0.03,-0.023,103.0,102.0,101.0,13.3,1505.2,329.7,-0.8,1.8,2470.683,13.28,0.042,135.0
2022-01-15T04:19:03,42.805,6.029,0.065,-0.043,0.01,103.0,103.0,101.0,13.4,1505.2,323.4,-0.8,1.8,2470.665,13.28,0.077,123.5
2022-01-15T04:22:03,42.805,6.029,0.063,-0.022,-0.018,103.0,102.0,101.0,13.4,1505.2,324.8,-0.7,1.8,2470.649,13.28,0.066,109.2
2022-01-15T04:25:03,42.805,6.029,0.095,-0.034,0.014,103.0,102.0,102.0,13.3,1505.2,326.0,-0.8,1.8,2470.65,13.28,0.1,109.7
2022-01-15T04:28:03,42.805,6.029,0.07,-0.053,0.01,103.0,103.0,102.0,13.4,1505.2,331.1,-0.7,1.8,2470.715,13.28,0.087,127.1
2022-01-15T04:31:03,42.805,6.029,0.075,-0.058,-0.006,104.0,102.0,101.0,13.4,1505.2,331.6,-0.7,1.8,2470.682,13.28,0.094,127.7
2022-01-15T04:34:03,42.805,6.029,0.065,-0.018,-0.003,104.0,103.0,101.0,13.4,1505.2,328.5,-0.7,1.8,2470.671,13.28,0.067,105.5
2022-01-15T04:37:03,42.805,6.029,0.067,-0.05,-0.02,103.0,103.0,101.0,13.3,1505.2,330.8,-0.8,1.8,2470.7,13.28,0.083,126.7
2022-01-15T04:40:03,42.805,6.029,0.072,-0.022,-0.029,104.0,103.0,101.0,13.4,1505.2,325.5,-0.8,1.8,2470.682,13.28,0.075,107.0
2022-01-15T04:43:03,42.805,6.029,0.055,-0.037,-0.032,105.0,104.0,101.0,13.4,1505.2,330.2,-0.7,1.8,2470.699,13.28,0.066,123.9
2022-01-15T04:46:03,42.805,6.029,0.098,-0.021,-0.002,104.0,101.0,101.0,13.3,1505.2,325.8,-0.8,1.8,2470.692,13.28,0.1,102.1
2022-01-15T04:49:03,42.805,6.029,0.062,-0.028,0.005,103.0,103.0,101.0,13.4,1505.2,328.6,-0.8,1.8,2470.701,13.28,0.068,114.3
2022-01-15T04:52:03,42.805,6.029,0.073,-0.031,0.012,102.0,103.0,103.0,13.3,1505.2,328.9,-0.8,1.8,2470.706,13.28,0.079,113.0
2022-01-15T04:55:03,42.805,6.029,0.07,-0.039,-0.012,102.0,102.0,102.0,13.4,1505.2,331.2,-0.8,1.8,2470.703,13.28,0.08,119.1
2022-01-15T04:58:03,42.805,6.029,0.063,-0.042,-0.011,102.0,103.0,101.0,13.4,1505.2,324.4,-0.7,1.8,2470.672,13.28,0.075,123.7
2022-01-15T05:04:03,42.805,6.029,0.093,-0.029,0.0,102.0,103.0,101.0,13.3,1505.2,325.3,-0.8,1.8,2470.719,13.28,0.097,107.3
2022-01-15T05:07:03,42.805,6.029,0.067,-0.031,0.014,104.0,102.0,101.0,13.4,1505.2,325.9,-0.8,1.8,2470.717,13.28,0.073,114.8
2022-01-15T05:10:03,42.805,6.029,0.065,-0.026,0.011,103.0,102.0,101.0,13.4,1505.2,325.5,-0.8,1.8,2470.68,13.28,0.07,111.8
2022-01-15T05:13:03,42.805,6.029,0.064,-0.028,0.011,103.0,103.0,102.0,13.4,1505.2,328.8,-0.8,1.8,2470.697,13.28,0.069,113.6
2022-01-15T05:16:03,42.805,6.029,0.055,-0.014,0.009,103.0,103.0,101.0,13.3,1505.2,328.4,-0.8,1.8,2470.678,13.28,0.056,104.3
2022-01-15T05:19:03,42.805,6.029,0.066,-0.04,0.001,103.0,103.0,102.0,13.4,1505.2,330.5,-0.7,1.8,2470.688,13.28,0.077,121.2
2022-01-15T05:22:03,42.805,6.029,0.052,-0.027,0.002,103.0,103.0,102.0,13.4,1505.2,329.3,-0.7,1.8,2470.707,13.28,0.058,117.4
2022-01-15T05:25:03,42.805,6.029,0.058,-0.033,-0.004,103.0,102.0,102.0,13.4,1505.2,331.3,-0.8,1.8,2470.716,13.28,0.066,119.6
2022-01-15T05:28:03,42.805,6.029,0.066,-0.03,0.019,103.0,102.0,101.0,13.3,1505.2,325.6,-0.8,1.8,2470.724,13.28,0.072,114.4
2022-01-15T05:31:03,42.805,6.029,0.084,-0.042,0.008,102.0,103.0,102.0,13.4,1505.2,323.5,-0.8,1.8,2470.722,13.28,0.093,116.6
2022-01-15T05:34:03,42.805,6.029,0.04,-0.046,-0.026,103.0,103.0,101.0,13.4,1505.2,324.2,-0.8,1.8,2470.72,13.28,0.06,139.0
2022-01-15T05:37:03,42.805,6.029,0.061,-0.038,-0.017,104.0,103.0,102.0,13.3,1505.2,327.6,-0.8,1.8,2470.721,13.28,0.071,121.9
2022-01-15T05:40:03,42.805,6.029,0.087,-0.062,-0.029,103.0,103.0,101.0,13.4,1505.2,330.0,-0.7,1.8,2470.715,13.28,0.106,125.5
2022-01-15T05:43:03,42.805,6.029,0.077,-0.04,0.01,103.0,102.0,101.0,13.3,1505.2,323.6,-0.8,1.8,2470.737,13.28,0.086,117.4
2022-01-15T05:46:03,42.805,6.029,0.065,-0.048,-0.011,103.0,102.0,101.0,13.4,1505.2,327.0,-0.7,1.8,2470.705,13.28,0.08,126.4
2022-01-15T05:49:03,42.805,6.029,0.073,-0.03,0.021,103.0,102.0,102.0,13.4,1505.2,331.3,-0.7,1.8,2470.705,13.28,0.078,112.3
2022-01-15T05:52:03,42.805,6.029,0.081,-0.01,0.015,102.0,103.0,102.0,13.4,1505.2,324.6,-0.7,1.8,2470.743,13.28,0.081,97.0
2022-01-15T05:55:03,42.805,6.029,0.069,-0.038,-0.002,103.0,103.0,102.0,13.4,1505.2,328.7,-0.8,1.8,2470.7,13.28,0.078,118.8
2022-01-15T05:58:03,42.805,6.029,0.065,-0.04,0.007,104.0,102.0,101.0,13.4,1505.2,324.2,-0.8,1.8,2470.692,13.28,0.076,121.6
2022-01-15T06:04:03,42.805,6.029,0.079,-0.049,0.016,103.0,103.0,101.0,13.4,1505.2,326.1,-0.8,1.8,2470.754,13.28,0.092,121.8
2022-01-15T06:07:03,42.805,6.029,0.045,-0.039,0.001,104.0,103.0,102.0,13.4,1505.2,330.2,-0.7,1.8,2470.756,13.28,0.059,130.9
2022-01-15T06:10:03,42.805,6.029,0.044,-0.027,0.013,102.0,103.0,102.0,13.4,1505.2,324.2,-0.8,1.9,2470.695,13.28,0.051,121.5
2022-01-15T06:13:03,42.805,6.029,0.057,-0.042,0.001,102.0,103.0,102.0,13.3,1505.2,328.9,-0.7,1.8,2470.704,13.28,0.07,126.4
2022-01-15T06:16:03,42.805,6.029,0.068,-0.044,-0.002,103.0,103.0,103.0,13.4,1505.2,327.9,-0.8,1.8,2470.704,13.28,0.08,122.9
2022-01-15T06:19:03,42.805,6.029,0.052,-0.023,0.029,104.0,102.0,102.0,13.3,1505.2,328.5,-0.7,1.8,2470.708,13.28,0.056,113.9
2022-01-15T06:22:03,42.805,6.029,0.059,-0.026,0.022,103.0,103.0,101.0,13.3,1505.2,331.8,-0.8,1.8,2470.717,13.28,0.064,113.8
2022-01-15T06:25:03,42.805,6.029,0.061,-0.025,0.015,102.0,103.0,101.0,13.4,1505.2,326.9,-0.7,1.8,2470.709,13.28,0.065,112.3
2022-01-15T06:28:03,42.805,6.029,0.062,-0.022,-0.023,103.0,102.0,102.0,13.4,1505.2,324.6,-0.8,1.8,2470.7,13.28,0.065,109.5
2022-01-15T06:31:03,42.805,6.029,0.081,-0.026,0.002,102.0,103.0,102.0,13.3,1505.2,325.3,-0.7,1.8,2470.746,13.28,0.085,107.8
2022-01-15T06:34:03,42.805,6.029,0.046,-0.021,-0.007,102.0,102.0,102.0,13.4,1505.2,326.0,-0.8,1.8,2470.732,13.28,0.05,114.5
2022-01-15T06:37:03,42.805,6.029,0.046,-0.044,-0.014,102.0,103.0,101.0,13.3,1505.2,327.9,-0.7,1.8,2470.72,13.28,0.063,133.7
2022-01-15T06:40:03,42.805,6.029,0.067,-0.037,0.029,103.0,102.0,101.0,13.3,1505.2,326.8,-0.7,1.8,2470.719,13.28,0.076,118.9
2022-01-15T06:43:03,42.805,6.029,0.034,-0.028,-0.024,103.0,103.0,101.0,13.3,1505.2,328.9,-0.8,1.8,2470.75,13.28,0.044,129.5
2022-01-15T06:46:03,42.805,6.029,0.045,-0.029,-0.011,103.0,103.0,101.0,13.4,1505.2,329.7,-0.7,1.8,2470.73,13.28,0.053,122.8
2022-01-15T06:49:03,42.805,6.029,0.07,-0.03,-0.028,104.0,104.0,101.0,13.4,1505.2,326.4,-0.8,1.9,2470.723,13.28,0.076,113.2
2022-01-15T06:52:03,42.805,6.029,0.056,-0.039,-0.017,103.0,102.0,102.0,13.3,1505.2,329.6,-0.8,1.8,2470.685,13.28,0.068,124.9
2022-01-15T06:55:03,42.805,6.029,0.067,-0.049,-0.005,102.0,102.0,101.0,13.3,1505.2,326.7,-0.8,1.8,2470.725,13.28,0.083,126.2
2022-01-15T06:58:03,42.805,6.029,0.071,-0.043,0.01,104.0,103.0,102.0,13.4,1505.2,325.9,-0.7,1.8,2470.756,13.28,0.083,121.2
2022-01-15T07:04:03,42.805,6.029,0.063,-0.057,-0.02,102.0,102.0,102.0,13.3,1505.2,328.3,-0.8,1.8,2470.721,13.28,0.084,132.1
2022-01-15T07:07:03,42.805,6.029,0.04,-0.036,-0.02,102.0,102.0,101.0,13.4,1505.2,331.2,-0.8,1.8,2470.769,13.28,0.053,132.0
2022-01-15T07:10:03,42.805,6.029,0.059,-0.032,-0.003,103.0,102.0,100.0,13.3,1505.2,327.2,-0.8,1.9,2470.736,13.28,0.067,118.5
2022-01-15T07:13:03,42.805,6.029,0.068,-0.022,0.005,104.0,101.0,101.0,13.4,1505.2,324.2,-0.7,1.8,2470.71,13.28,0.071,107.9
2022-01-15T07:16:03,42.805,6.029,0.061,-0.044,0.004,103.0,101.0,101.0,13.3,1505.2,331.3,-0.8,1.8,2470.706,13.28,0.075,125.8
2022-01-15T07:19:03,42.805,6.029,0.051,-0.043,-0.008,103.0,102.0,102.0,13.4,1505.2,325.3,-0.7,1.8,2470.697,13.28,0.066,130.1
2022-01-15T07:22:03,42.805,6.029,0.063,-0.045,0.0,102.0,103.0,102.0,13.3,1505.2,331.5,-0.8,1.8,2470.71,13.28,0.077,125.5
2022-01-15T07:25:03,42.805,6.029,0.094,-0.02,0.025,102.0,102.0,102.0,13.4,1505.2,326.8,-0.8,1.8,2470.72,13.28,0.096,102.0
2022-01-15T07:28:03,42.805,6.029,0.078,-0.028,0.027,102.0,103.0,101.0,13.4,1505.2,328.7,-0.8,1.8,2470.735,13.28,0.082,109.7
2022-01-15T07:31:03,42.805,6.029,0.062,-0.016,0.008,104.0,101.0,103.0,13.4,1505.2,329.1,-0.8,1.8,2470.66,13.28,0.064,104.5
2022-01-15T07:34:03,42.805,6.029,0.058,-0.059,0.012,104.0,101.0,101.0,13.4,1505.2,331.3,-0.8,1.8,2470.673,13.28,0.082,135.5
2022-01-15T07:37:03,42.805,6.029,0.086,-0.033,0.017,102.0,103.0,101.0,13.4,1505.2,330.8,-0.8,1.8,2470.76,13.28,0.092,111.0
2022-01-15T07:40:03,42.805,6.029,0.088,-0.039,-0.002,101.0,104.0,102.0,13.4,1505.2,331.5,-0.8,1.8,2470.682,13.28,0.096,113.9
2022-01-15T07:43:03,42.805,6.029,0.082,-0.037,-0.021,103.0,102.0,102.0,13.3,1505.2,331.0,-0.8,1.8,2470.674,13.28,0.089,114.3
2022-01-15T07:46:03,42.805,6.029,0.084,-0.035,0.005,101.0,102.0,102.0,13.4,1505.2,332.2,-0.8,1.8,2470.679,13.28,0.091,112.6
2022-01-15T07:49:03,42.805,6.029,0.086,-0.066,-0.018,102.0,102.0,101.0,13.4,1505.2,331.5,-0.8,1.8,2470.717,13.28,0.108,127.5
2022-01-15T07:52:03,42.805,6.029,0.091,-0.028,0.013,103.0,103.0,101.0,13.4,1505.2,329.1,-0.7,1.8,2470.68,13.28,0.095,107.1
2022-01-15T07:55:03,42.805,6.029,0.06,-0.028,0.036,103.0,102.0,102.0,13.4,1505.2,327.2,-0.8,1.8,2470.651,13.28,0.066,115.0
2022-01-15T07:58:03,42.805,6.029,0.062,-0.043,-0.014,103.0,102.0,101.0,13.3,1505.2,329.2,-0.7,1.8,2470.667,13.28,0.075,124.7
2022-01-15T08:04:03,42.805,6.029,0.066,-0.016,0.025,102.0,102.0,101.0,13.4,1505.2,330.9,-0.8,1.8,2470.681,13.28,0.067,103.6
2022-01-15T08:07:03,42.805,6.029,0.084,-0.026,0.026,102.0,102.0,102.0,13.4,1505.2,327.5,-0.7,1.9,2470.694,13.28,0.087,107.2
2022-01-15T08:10:03,42.805,6.029,0.075,-0.057,0.018,103.0,102.0,101.0,13.4,1505.2,330.9,-0.7,1.8,2470.647,13.28,0.094,127.2
2022-01-15T08:13:03,42.805,6.029,0.086,-0.043,0.01,102.0,101.0,101.0,13.4,1505.2,331.5,-0.8,1.8,2470.678,13.28,0.096,116.6
2022-01-15T08:16:03,42.805,6.029,0.072,-0.022,0.006,102.0,102.0,101.0,13.4,1505.2,329.0,-0.8,1.8,2470.7,13.28,0.075,107.0
2022-01-15T08:19:03,42.805,6.029,0.063,-0.038,-0.002,103.0,103.0,101.0,13.4,1505.2,331.8,-0.7,1.8,2470.677,13.28,0.073,121.1
2022-01-15T08:22:03,42.805,6.029,0.07,-0.022,0.016,102.0,101.0,102.0,13.4,1505.2,323.8,-0.8,1.8,2470.689,13.28,0.073,107.4
2022-01-15T08:25:03,42.805,6.029,0.072,-0.023,0.034,101.0,103.0,101.0,13.4,1505.2,329.5,-0.8,1.8,2470.664,13.28,0.075,107.7
2022-01-15T08:28:03,42.805,6.029,0.07,-0.029,0.02,103.0,102.0,101.0,13.3,1505.2,326.7,-0.7,1.8,2470.652,13.28,0.075,112.5
2022-01-15T08:31:03,42.805,6.029,0.062,-0.038,0.0,104.0,102.0,101.0,13.3,1505.2,325.9,-0.7,1.8,2470.617,13.28,0.072,121.5
2022-01-15T08:34:03,42.805,6.029,0.092,-0.039,-0.001,102.0,103.0,101.0,13.4,1505.2,327.7,-0.7,1.8,2470.637,13.28,0.099,113.0
2022-01-15T08:37:03,42.805,6.029,0.093,-0.033,0.022,103.0,101.0,101.0,13.3,1505.2,326.4,-0.7,1.8,2470.601,13.28,0.098,109.5
2022-01-15T08:40:03,42.805,6.029,0.065,-0.032,-0.01,103.0,102.0,101.0,13.3,1505.2,327.4,-0.8,1.8,2470.606,13.28,0.072,116.2
2022-01-15T08:43:03,42.805,6.029,0.066,-0.04,0.005,101.0,104.0,101.0,13.4,1505.2,329.4,-0.7,1.8,2470.622,13.28,0.077,121.2
2022-01-15T08:46:03,42.805,6.029,0.065,-0.032,0.004,103.0,102.0,101.0,13.4,1505.2,329.0,-0.7,1.8,2470.636,13.28,0.072,116.2
2022-01-15T08:49:03,42.805,6.029,0.042,-0.04,-0.018,103.0,103.0,101.0,13.4,1505.2,330.5,-0.8,1.8,2470.635,13.28,0.057,133.6
2022-01-15T08:52:03,42.805,6.029,0.056,-0.038,0.014,102.0,104.0,101.0,13.4,1505.2,331.0,-0.8,1.8,2470.623,13.28,0.067,124.2
2022-01-15T08:55:03,42.805,6.029,0.097,-0.063,0.015,103.0,101.0,101.0,13.4,1505.2,326.5,-0.8,1.8,2470.608,13.28,0.115,123.0
2022-01-15T08:58:03,42.805,6.029,0.064,-0.052,0.005,103.0,102.0,101.0,13.4,1505.2,326.4,-0.8,1.8,2470.64,13.28,0.082,129.1
2022-01-15T09:04:03,42.805,6.029,0.067,-0.035,0.001,102.0,102.0,102.0,13.3,1505.2,327.3,-0.8,1.9,2470.664,13.28,0.075,117.6
2022-01-15T09:07:03,42.805,6.029,0.075,-0.045,0.003,104.0,103.0,102.0,13.3,1505.2,326.7,-0.8,1.8,2470.632,13.28,0.087,121.0
2022-01-15T09:10:03,42.805,6.029,0.042,-0.03,-0.016,104.0,101.0,103.0,13.4,1505.2,329.1,-0.7,1.8,2470.64,13.28,0.051,125.5
2022-01-15T09:13:03,42.805,6.029,0.083,-0.04,-0.019,103.0,102.0,102.0,13.3,1505.2,323.6,-0.7,1.8,2470.64,13.28,0.092,115.7
2022-01-15T09:16:03,42.805,6.029,0.069,-0.052,-0.006,103.0,102.0,101.0,13.4,1505.2,330.0,-0.8,1.9,2470.626,13.28,0.086,127.0
2022-01-15T09:19:03,42.805,6.029,0.073,-0.025,-0.035,103.0,102.0,101.0,13.4,1505.2,326.5,-0.7,1.8,2470.635,13.28,0.077,108.9
2022-01-15T09:22:03,42.805,6.029,0.061,-0.031,-0.005,103.0,102.0,101.0,13.4,1505.2,327.4,-0.8,1.8,2470.617,13.28,0.068,116.9
2022-01-15T09:25:03,42.805,6.029,0.05,-0.027,0.042,103.0,103.0,101.0,13.4,1505.2,325.9,-0.7,1.8,2470.65,13.28,0.056,118.4
2022-01-15T09:28:03,42.805,6.029,0.061,-0.028,0.0,102.0,103.0,101.0,13.3,1505.2,328.1,-0.8,1.8,2470.598,13.28,0.067,114.7
2022-01-15T09:31:03,42.805,6.029,0.054,-0.037,-0.001,103.0,102.0,102.0,13.4,1505.2,326.8,-0.8,1.8,2470.615,13.28,0.065,124.4
2022-01-15T09:34:03,42.805,6.029,0.06,-0.044,-0.019,104.0,102.0,101.0,13.4,1505.2,327.6,-0.7,1.8,2470.643,13.28,0.074,126.3
2022-01-15T09:37:03,42.805,6.029,0.066,-0.032,0.012,104.0,103.0,101.0,13.3,1505.2,324.4,-0.7,1.8,2470.619,13.28,0.073,115.9
2022-01-15T09:40:03,42.805,6.029,0.086,-0.01,0.034,102.0,102.0,101.0,13.4,1505.2,325.9,-0.7,1.8,2470.601,13.28,0.086,96.6
2022-01-15T09:43:03,42.805,6.029,0.071,-0.034,0.03,104.0,102.0,101.0,13.3,1505.2,329.1,-0.8,1.8,2470.592,13.28,0.078,115.6
2022-01-15T09:46:03,42.805,6.029,0.068,-0.032,0.022,103.0,102.0,101.0,13.4,1505.2,324.1,-0.8,1.8,2470.606,13.28,0.075,115.2
2022-01-15T09:49:03,42.805,6.029,0.061,-0.041,-0.01,102.0,104.0,101.0,13.4,1505.2,327.5,-0.8,1.8,2470.62,13.28,0.073,123.9
2022-01-15T09:52:03,42.805,6.029,0.066,-0.037,0.007,102.0,103.0,101.0,13.4,1505.2,329.7,-0.7,1.8,2470.621,13.28,0.075,119.3
2022-01-15T09:55:03,42.805,6.029,0.065,-0.024,0.033,103.0,104.0,100.0,13.3,1505.2,328.4,-0.7,1.8,2470.62,13.28,0.069,110.3